Regional Weather Roundup
Issued by NWS

Home | Current Version | Previous Version | Graphics & Text | Print | Product List | Glossary On
Versions: 1 2 3 4 5 6 7 8 9 10 11 12 13 14 15 16 17 18 19 20 21 22 23 24 25 26 27 28 29 30 31 32 33 34 35 36 37 38 39 40 41 42 43 44 45 46 47 48 49 50
000
ASUS45 KBOU 020707
RWRCO

WEATHER ROUNDUP FOR COLORADO
NATIONAL WEATHER SERVICE DENVER/BOULDER CO
100 AM MDT TUE SEP 02 2014

NOTE: "FAIR" INDICATES FEW OR NO CLOUDS BELOW 12000 FEET WITH NO
SIGNIFICANT WEATHER AND/OR OBSTRUCTIONS TO VISIBILITY.

COZ001>005-013-030-031-020800-
...NORTHWEST COLORADO...

CITY           SKY/WX    TMP DP  RH WIND       PRES   REMARKS
CRAIG          CLEAR     44  40  85 CALM      30.19S
HAYDEN         CLEAR     50  36  57 E10       30.20S
MEEKER         CLEAR     48  38  68 NE9       30.20S
MOUNT WERNER   NOT AVBL
STEAMBOAT SPGS CLEAR     47  37  69 CALM      30.23S
WALDEN         CLEAR     39  32  75 SE8       30.28S
$$

COZ006>008-011-020800-
...WEST CENTRAL VALLEYS...

CITY           SKY/WX    TMP DP  RH WIND       PRES   REMARKS
GRAND JUNCTION CLEAR     58  42  55 CALM      30.07R
MONTROSE       CLEAR     61  36  39 SE8       30.16S
EAGLE          CLEAR     50  37  62 S5        30.24S
RIFLE          CLEAR     57  39  51 S6        30.14F
DELTA          CLEAR     61  36  39 E7        30.12S
NUCLA          CLEAR     61  34  36 SE12      30.18S
$$

COZ017>023-064>068-020800-
...SOUTHWEST COLORADO...

CITY           SKY/WX    TMP DP  RH WIND       PRES   REMARKS
DURANGO        CLEAR     54  35  48 CALM      30.19S
CORTEZ         CLEAR     52  38  58 E6        30.15R
PAGOSA SPRINGS CLEAR     51  30  44 CALM      30.27F
TELLURIDE      CLEAR     52  32  46 SE7       30.38F
WOLF CREEK PAS CLEAR     46  27  46 SW10      30.57S
$$

COZ009-010-012-014-032>034-037-058>063-020800-
...CENTRAL COLORADO...

CITY           SKY/WX    TMP DP  RH WIND       PRES   REMARKS
ASPEN          CLEAR     48  33  56 SW10      30.29F
BUENA VISTA    CLEAR     51  32  47 S5        30.30S
COPPER MTN     CLEAR     46  28  49 S10       30.55F
BERTHOUD PASS  FAIR      37  36  93 W14       30.57S
COTTONWOOD PAS CLEAR     59  21  23 NW6       30.41S
GUNNISON       CLEAR     45  32  61 CALM      30.32S
KREMMLING      CLEAR     41  32  70 CALM      30.29S
LEADVILLE      CLEAR     36  30  79 CALM      30.42S
SALIDA         CLEAR     53  32  44 SW3       30.35R
SUNLIGHT       CLEAR     50  32  50 CALM      30.48F
WILKERSON PASS NOT AVBL
$$

COZ069>075-020800-
...SAN LUIS VALLEY/SANGRE DE CRISTO MOUNTAINS...

CITY           SKY/WX    TMP DP  RH WIND       PRES   REMARKS
ALAMOSA        CLEAR     52  32  46 N7        30.25S
LA VETA PASS   NOT AVBL
SAGUACHE       NOT AVBL
$$

COZ035-036-038>040-020800-
...NORTHERN COLORADO FRONT RANGE...

CITY           SKY/WX    TMP DP  RH WIND       PRES   REMARKS
DENVER INTL AP PTCLDY    53  44  71 NE6       30.16R
DMNS CITY PARK   N/A     57  43  59 N2        30.17S
AURORA         PTCLDY    52  44  72 NE6       30.17S
FRONT RANGE AP CLEAR     54  46  76 NE6       30.16S
ERIE MUNI ARPT CLEAR     53  47  79 CALM      30.17S
BOULDER MUN AP CLEAR     57  45  62 W5        30.17F
CENTENNIAL     PTCLDY    57  42  57 N5        30.17R
BROOMFIELD     CLEAR     57  45  62 NW7       30.19S
FORT COLLINS   CLEAR     54  45  71 NW3       30.17R
LONGMONT       CLEAR     56  46  70 CALM      30.18S
$$

COZ041-046-047-076>085-087-088-020800-
...PIKES PEAK/PALMER DIVIDE AND SOUTHERN FOOTHILLS...

CITY           SKY/WX    TMP DP  RH WIND       PRES   REMARKS
COLO. SPRINGS  CLEAR     63  46  54 S5        30.19S
A. F. ACADEMY  CLEAR     50  45  82 N8        30.20F
ELLICOTT       CLEAR     58  51  78 SE9       30.16S
FALCON         CLEAR     54  45  71 SW5       30.23S
FORT CARSON    CLEAR     62  47  58 CALM      30.16S
LIMON          PTCLDY    56  46  69 N10       30.13R
MONUMENT HILL  CLEAR     54  43  66 SW8       30.21F
TRINIDAD       CLEAR     64  44  48 NW13      30.12R
$$

COZ042>045-048>051-090-091-020800-
...NORTHEAST COLORADO...

CITY           SKY/WX    TMP DP  RH WIND       PRES   REMARKS
GREELEY ARPT   CLEAR     52  41  66 SW7       30.15R
AKRON          CLEAR     52  47  83 MISG      30.11F
BURLINGTON     CLEAR     60  52  74 S7        30.04F
WRAY             N/A     57  55  94 NE6       30.08S
STERLING       CLEAR     55  52  88 E5        30.09R
HOLYOKE        CLEAR     54  50  87 NE5       30.08F
FORT MORGAN    CLEAR     53  46  76 E8        30.12R
$$

COZ086-089-092>099-020800-
...SOUTHEAST COLORADO...

CITY           SKY/WX    TMP DP  RH WIND       PRES   REMARKS
PUEBLO         CLEAR     64  49  57 N6        30.08R
LA JUNTA       CLEAR     65  56  72 E8        30.04R
LAMAR          CLEAR     62  57  83 NE5       30.00S
SPRINGFIELD      N/A     63  62  97 E8        30.05R
$$



USA.gov is the U.S. government's official web portal to all federal, state and local government web resources and services.